Location: *
(33.8649°S, 62.1526°E)
Time: 15:32:24
(UTC+00:00)

USA 234 - Pass Details

Date: 17 January 2021
Orbit: 1100 x 1107 km, 123.0° (Epoch: 01 March)

Event Time Altitude Azimuth Distance (km) Brightness Sun altitude
Rises 20:13:47 0° 136° (SE) 3,946 6.8 -35.5°
Reaches altitude 10° 20:16:17 10° 135° (SE) 2,983 6.0 -35.5°
Enters shadow 20:21:08 52° 121° (ESE) 1,355 3.8 -35.4°
